Location: Copper Breaks State Park
(34.1132°N, 99.7492°W)
Time: 01:19:03
(UTC-05:00)

Amateur Radio Satellites - All Passes

Search period start: 26 June 2016 00:49
Search period end: 27 June 2016 00:49
Location: Copper Breaks State Park, 34.1132°N, 99.7492°W

Satellite Date Start Highest point End Downlink Frequencies (MHz)
Time Altitude Azimuth
AISAT 26 Jun 00:50:08 00:54:32 68° 259° (W) 00:58:56 437.250
DUCHIFAT 1 26 Jun 00:50:32 00:54:34 42° 99° (E) 00:58:35 145.980
YUBILEINY 26 Jun 00:51:19 00:59:50 49° 78° (ENE) 01:08:17 435.215
50 SAT 26 Jun 00:56:15 00:59:48 45° 261° (W) 01:03:23 437.505
UKube-1 26 Jun 01:07:15 01:11:32 73° 257° (WSW) 01:15:52 .
TIGRISAT 26 Jun 01:08:33 01:11:43 18° 292° (WNW) 01:14:53 435.000
TISAT 1 26 Jun 01:12:28 01:15:18 18° 69° (ENE) 01:18:08 437.305
UNISAT 6 26 Jun 01:12:58 01:15:44 16° 293° (WNW) 01:18:29 437.425
SPROUT 26 Jun 01:14:50 01:19:05 88° 72° (ENE) 01:23:20 437.525
DX 1 26 Jun 01:21:37 01:25:40 38° 261° (W) 01:29:43 434.975-435.025
SO-50 26 Jun 01:32:19 01:35:05 15° 48° (NE) 01:37:47 436.795
VELOX 1 26 Jun 01:47:59 01:50:40 16° 266° (W) 01:53:21 145.980
CUBEBUG 1 26 Jun 01:48:27 01:50:48 14° 266° (W) 01:53:07 437.445
SWISSCUBE 26 Jun 01:49:54 01:50:43 10° 63° (ENE) 01:51:33 437.505
Cosmos 2491 26 Jun 01:54:24 02:03:09 75° 93° (E) 02:11:52 435.465 / 435.565
BUGSAT 1 26 Jun 01:59:18 02:03:20 62° 284° (WNW) 02:07:25 437.445
Cosmos 2504 26 Jun 02:00:11 02:08:32 43° 77° (ENE) 02:16:31 435.465 / 435.565
JAS-2 26 Jun 02:01:34 02:07:02 51° 99° (E) 02:12:06 435.910
NANOSAT C BR1 26 Jun 02:04:38 02:07:55 22° 290° (WNW) 02:11:14 145.865
QB50P1 26 Jun 02:05:56 02:09:06 21° 290° (WNW) 02:12:16 145.935-145.965
POPSAT HIP 1 26 Jun 02:08:56 02:12:00 20° 291° (WNW) 02:15:05 437.405
ITUPSAT 1 26 Jun 02:12:08 02:15:09 17° 66° (ENE) 02:18:12 437.325
BEESAT 26 Jun 02:13:02 02:16:09 18° 67° (ENE) 02:19:17 436.000
QB50P2 26 Jun 02:21:17 02:23:25 14° 293° (WNW) 02:25:33 145.880/145.840
POLYITAN 1 26 Jun 02:23:57 02:26:02 13° 293° (WNW) 02:28:06 437.675
Oscar 19 26 Jun 02:24:43 02:29:11 30° 97° (E) 02:33:39 437.125/150
DUCHIFAT 1 26 Jun 02:27:46 02:29:51 14° 293° (WNW) 02:31:56 145.980
TISAT 1 26 Jun 02:47:04 02:50:42 29° 262° (W) 02:54:21 437.305
YUBILEINY 26 Jun 02:48:48 02:56:09 31° 275° (W) 03:03:32 435.215
SO-50 26 Jun 03:11:24 03:15:54 55° 245° (WSW) 03:20:16 436.795
SWISSCUBE 26 Jun 03:23:05 03:27:51 72° 258° (WSW) 03:32:39 437.505
BEESAT 3 26 Jun 03:30:56 03:34:30 35° 113° (ESE) 03:38:06 437.485
O/OREOS (USA 219) 26 Jun 03:35:46 03:39:53 36° 104° (ESE) 03:44:00 437.305
PCSat 26 Jun 03:39:54 03:45:19 86° 297° (WNW) 03:50:46 145.827
ITUPSAT 1 26 Jun 03:48:03 03:52:36 43° 261° (W) 03:57:11 437.325
JAS-2 26 Jun 03:48:08 03:51:33 17° 297° (WNW) 03:54:48 435.910
BEESAT 26 Jun 03:49:05 03:53:34 41° 261° (W) 03:58:06 436.000
KKS-1 26 Jun 03:49:50 03:53:02 20° 69° (ENE) 03:56:15 437.445
Cosmos 2504 26 Jun 03:53:49 04:01:40 37° 274° (W) 04:09:13 435.465 / 435.565
Cosmos 2491 26 Jun 03:54:48 04:00:45 20° 291° (WNW) 04:06:44 435.465 / 435.565
Gurwin Techsat 1B 26 Jun 03:56:30 04:01:50 78° 284° (WNW) 04:07:08 435.225
BEESAT 2 26 Jun 04:02:40 04:06:25 44° 115° (ESE) 04:10:12 435.950
Oscar 19 26 Jun 04:04:09 04:08:21 26° 291° (WNW) 04:12:33 437.125/150
ITAMSAT 1 26 Jun 04:19:22 04:24:33 60° 101° (ESE) 04:29:41 435.822/435.867
STARS 26 Jun 04:29:30 04:33:09 27° 71° (ENE) 04:36:50 437.465
AO-7 26 Jun 04:49:04 04:56:59 44° 101° (E) 05:04:49 29.400- 29.500
MOZHAYETS 4 26 Jun 04:53:51 04:58:27 86° 258° (WSW) 05:03:07
BEESAT 3 26 Jun 05:09:45 05:12:17 16° 309° (NW) 05:14:49 437.485
O/OREOS (USA 219) 26 Jun 05:16:20 05:19:22 18° 299° (WNW) 05:22:24 437.305
AIST 1 26 Jun 05:19:53 05:23:58 44° 81° (E) 05:28:01
KKS-1 26 Jun 05:25:29 05:29:22 30° 262° (W) 05:33:17 437.445
PCSat 26 Jun 05:27:42 05:29:29 12° 313° (NW) 05:31:18 145.827
BEESAT 2 26 Jun 05:42:21 05:44:28 14° 310° (NW) 05:46:36 435.950
AIST 2 26 Jun 05:58:17 06:02:08 40° 114° (ESE) 06:06:01 435.215
ITAMSAT 1 26 Jun 06:00:40 06:03:27 15° 296° (WNW) 06:06:13 435.822/435.867
STARS 26 Jun 06:06:08 06:09:27 21° 264° (W) 06:12:47 437.465
CUBESAT XI-V 26 Jun 06:13:32 06:18:14 75° 77° (ENE) 06:22:57 437.345
CUTE-I 26 Jun 06:41:16 06:43:32 13° 92° (E) 06:45:47 437.470
AO-7 26 Jun 06:42:03 06:49:30 37° 297° (WNW) 06:56:56 29.400- 29.500
HORYU 2 26 Jun 06:45:00 06:49:28 68° 285° (WNW) 06:53:56 437.375
Cosmos 2499 26 Jun 06:45:09 06:53:18 41° 76° (ENE) 07:00:58 435.465 / 435.565
GONETS M04 26 Jun 06:48:15 06:56:54 64° 81° (E) 07:05:34
AIST 1 26 Jun 07:00:00 07:01:04 11° 275° (W) 07:02:08
AO-85 26 Jun 07:03:53 07:05:39 12° 45° (NE) 07:07:22 145.980
PHONESAT 2.4 26 Jun 07:07:15 07:08:28 12° 142° (SE) 07:09:42 2401.200-2431.200
NOAA 18 26 Jun 07:15:20 07:20:16 33° 98° (E) 07:25:12 137.9125
NOAA 15 26 Jun 07:16:31 07:21:30 43° 99° (E) 07:26:27 137.62
BRITE-PL 26 Jun 07:34:36 07:38:43 65° 101° (E) 07:42:53 437.365/2234.400
AIST 2 26 Jun 07:38:13 07:40:46 16° 309° (NW) 07:43:22 435.215
Cubesat XI-IV 26 Jun 07:43:21 07:48:39 56° 101° (E) 07:53:55 437.490
DANDE 26 Jun 07:46:35 07:50:57 15° 82° (E) 07:55:18 436.750
CUSAT 1 26 Jun 07:47:20 07:54:08 32° 90° (E) 08:00:20 437.405
LilacSat-2 26 Jun 07:48:58 07:52:51 72° 101° (E) 07:56:43 437.200
DOVE 4 26 Jun 07:59:22 08:02:46 22° 96° (E) 08:06:17 437.250
STRAND 1 26 Jun 08:04:00 08:09:06 74° 75° (ENE) 08:14:15 437.568
CUTE-I 26 Jun 08:18:37 08:23:57 65° 286° (WNW) 08:29:15 437.470
GOMX 1 26 Jun 08:22:16 08:26:28 81° 285° (WNW) 08:30:50 467.674
Cosmos 2499 26 Jun 08:38:26 08:46:14 38° 274° (W) 08:53:37 435.465 / 435.565
PHONESAT 2.4 26 Jun 08:41:40 08:44:44 86° 155° (SSE) 08:47:49 2401.200-2431.200
AO-85 26 Jun 08:42:18 08:46:39 64° 245° (WSW) 08:50:38 145.980
GONETS M04 26 Jun 08:46:37 08:52:54 23° 278° (W) 08:59:14
PRISM 26 Jun 08:54:17 08:58:01 33° 72° (ENE) 09:01:45 437.425
NOAA 18 26 Jun 08:56:06 09:00:45 28° 292° (WNW) 09:05:25 137.9125
NOAA 15 26 Jun 08:57:13 09:00:55 20° 294° (WNW) 09:04:37 137.62
HO-68 26 Jun 09:03:20 09:09:55 37° 99° (E) 09:16:26 435.675
CINEMA 3 26 Jun 09:14:18 09:18:41 45° 100° (E) 09:23:13 145.822/145.860
ISS 26 Jun 09:15:57 09:18:26 20° 129° (SE) 09:20:56 145.825
CANX-2 26 Jun 09:18:18 09:22:28 49° 99° (E) 09:26:36 2200.000
DANDE 26 Jun 09:24:27 09:32:45 85° 96° (E) 09:40:58 436.750
Cubesat XI-IV 26 Jun 09:25:00 09:28:11 16° 296° (WNW) 09:31:23 437.490
CUSAT 1 26 Jun 09:28:21 09:35:59 47° 282° (WNW) 09:42:49 437.405
CUBEBUG 2 26 Jun 09:30:35 09:33:59 20° 95° (E) 09:37:25 437.445
COMPASS 1 26 Jun 09:31:05 09:34:41 27° 97° (E) 09:38:16 437.405
DOVE 4 26 Jun 09:36:48 09:40:24 26° 288° (WNW) 09:44:07 437.250
CUTE 1.7 + AOD 2 26 Jun 09:38:45 09:43:04 77° 103° (ESE) 09:47:18 437.475
M-CUBED/EXP-1 PRIME 26 Jun 09:41:44 09:44:03 15° 101° (E) 09:46:26 437.505
SEEDS 26 Jun 09:47:44 09:51:58 68° 101° (E) 09:56:09 437.485
ZACube-1 26 Jun 10:08:34 10:12:11 23° 95° (E) 10:15:49 437.345
PHONESAT 2.4 26 Jun 10:18:52 10:21:35 27° 351° (N) 10:24:17 2401.200-2431.200
UWE-3 26 Jun 10:22:48 10:27:17 53° 100° (E) 10:31:50 435.000/436.395/437.385
Oscar 11 26 Jun 10:23:26 10:27:26 35° 98° (E) 10:31:24 145.826/435.025
TIGRISAT 26 Jun 10:27:01 10:30:06 20° 69° (ENE) 10:33:13 435.000
FUNcube-1 26 Jun 10:27:12 10:31:22 35° 98° (E) 10:35:33 145.935
PRISM 26 Jun 10:30:48 10:33:21 16° 265° (W) 10:35:56 437.425
UNISAT 6 26 Jun 10:30:52 10:34:16 23° 70° (ENE) 10:37:43 437.425
AAUSAT CUBESAT 2 26 Jun 10:34:39 10:38:45 57° 285° (WNW) 10:42:48 437.432
AUBIESAT-1 26 Jun 10:37:43 10:41:37 61° 106° (ESE) 10:45:49 437.475
HO-68 26 Jun 10:51:03 10:57:29 37° 294° (WNW) 11:03:54 435.675
ISS 26 Jun 10:51:51 10:54:44 29° 323° (NW) 10:57:39 145.825
CINEMA 3 26 Jun 10:52:54 10:55:27 15° 292° (WNW) 10:58:03 145.822/145.860
CANX-2 26 Jun 10:56:14 10:57:50 12° 294° (WNW) 10:59:27 2200.000
CUBEBUG 2 26 Jun 11:06:29 11:10:35 33° 288° (WNW) 11:14:46 437.445
COMPASS 1 26 Jun 11:07:03 11:10:02 19° 290° (WNW) 11:12:59 437.405
DELFI C3 26 Jun 11:08:23 11:12:17 52° 100° (E) 11:16:09 145.870
ANTELSAT 26 Jun 11:09:48 11:14:01 69° 77° (ENE) 11:18:21 437.575/2403.000
DANDE 26 Jun 11:10:42 11:16:18 19° 292° (WNW) 11:21:48 436.750
M-CUBED/EXP-1 PRIME 26 Jun 11:15:02 11:18:34 35° 291° (WNW) 11:22:22 437.505
NANOSAT C BR1 26 Jun 11:19:27 11:20:52 12° 66° (ENE) 11:22:17 145.865
QB50P1 26 Jun 11:20:26 11:22:17 13° 67° (ENE) 11:24:09 145.935-145.965
POPSAT HIP 1 26 Jun 11:23:10 11:25:14 14° 67° (ENE) 11:27:18 437.405
QB50P2 26 Jun 11:33:43 11:36:45 20° 69° (ENE) 11:39:48 145.880/145.840
POLYITAN 1 26 Jun 11:36:18 11:39:22 20° 69° (ENE) 11:42:27 437.675
DUCHIFAT 1 26 Jun 11:39:36 11:42:34 19° 69° (ENE) 11:45:32 145.980
HUMSAT D 26 Jun 11:44:00 11:48:17 63° 101° (E) 11:52:32 437.325/437.525
ZACube-1 26 Jun 11:44:33 11:48:23 28° 289° (WNW) 11:52:15 437.345
RS-15 26 Jun 11:51:50 12:01:33 35° 105° (ESE) 12:11:40 29.354- 29.394
PHONESAT 2.4 26 Jun 11:56:03 11:58:42 26° 8° (N) 12:01:22 2401.200-2431.200
Oscar 11 26 Jun 12:00:28 12:03:15 17° 292° (WNW) 12:06:02 145.826/435.025
UWE-3 26 Jun 12:01:11 12:03:16 13° 293° (WNW) 12:05:22 435.000/436.395/437.385
TIGRISAT 26 Jun 12:02:54 12:06:34 28° 263° (W) 12:10:18 435.000
FUNcube-1 26 Jun 12:04:12 12:07:19 19° 291° (WNW) 12:10:26 145.935
UNISAT 6 26 Jun 12:07:25 12:10:52 23° 264° (W) 12:14:21 437.425
JAS-2 26 Jun 12:09:32 12:14:48 21° 64° (ENE) 12:19:49 435.910
Cosmos 2491 26 Jun 12:10:12 12:17:38 30° 73° (ENE) 12:25:00 435.465 / 435.565
ESTCUBE 1 26 Jun 12:29:34 12:33:35 32° 98° (E) 12:37:34 437.505/2401.250
50 SAT 26 Jun 12:29:41 12:32:16 18° 95° (E) 12:34:51 437.505
PCSat 26 Jun 12:31:50 12:36:46 34° 58° (ENE) 12:41:39 145.827
AISAT 26 Jun 12:44:21 12:48:11 29° 98° (E) 12:51:59 437.250
BUGSAT 1 26 Jun 12:45:12 12:49:05 50° 75° (ENE) 12:52:59 437.445
NANOSAT C BR1 26 Jun 12:52:06 12:56:08 48° 260° (W) 13:00:11 145.865
QB50P1 26 Jun 12:53:40 12:57:39 43° 261° (W) 13:01:39 145.935-145.965
POPSAT HIP 1 26 Jun 12:56:41 13:00:37 40° 261° (W) 13:04:35 437.405
UKube-1 26 Jun 12:58:37 13:02:07 24° 97° (E) 13:05:35 .
SPROUT 26 Jun 13:05:19 13:08:27 20° 95° (E) 13:11:34 437.525
QB50P2 26 Jun 13:08:47 13:12:21 27° 263° (W) 13:15:56 145.880/145.840
POLYITAN 1 26 Jun 13:11:27 13:14:59 26° 263° (W) 13:18:31 437.675
DX 1 26 Jun 13:13:10 13:17:20 46° 100° (E) 13:21:29 434.975-435.025
DUCHIFAT 1 26 Jun 13:14:30 13:18:02 27° 263° (W) 13:21:38 145.980
BEESAT 3 26 Jun 13:28:38 13:32:36 89° 273° (W) 13:36:32 437.485
PHONESAT 2.4 26 Jun 13:32:31 13:35:36 77° 25° (NNE) 13:38:41 2401.200-2431.200
Gurwin Techsat 1B 26 Jun 13:37:35 13:39:46 13° 63° (ENE) 13:41:56 435.225
Oscar 19 26 Jun 13:37:59 13:42:26 31° 70° (ENE) 13:46:55 437.125/150
CUBEBUG 1 26 Jun 13:38:25 13:42:38 57° 285° (WNW) 13:46:52 437.445
VELOX 1 26 Jun 13:39:45 13:44:05 62° 285° (WNW) 13:48:25 145.980
YUBILEINY 26 Jun 13:47:05 13:55:36 64° 92° (E) 14:04:13 435.215
O/OREOS (USA 219) 26 Jun 13:49:13 13:53:24 37° 66° (ENE) 13:57:33 437.305
JAS-2 26 Jun 13:51:22 13:59:10 73° 257° (WSW) 14:06:27 435.910
BEESAT 2 26 Jun 14:01:31 14:05:30 70° 242° (WSW) 14:09:26 435.950
RS-15 26 Jun 14:02:06 14:13:14 60° 304° (NW) 14:25:05 29.354- 29.394
50 SAT 26 Jun 14:02:59 14:05:51 22° 289° (WNW) 14:08:43 437.505
Cosmos 2491 26 Jun 14:06:23 14:14:39 50° 271° (W) 14:22:55 435.465 / 435.565
ESTCUBE 1 26 Jun 14:06:55 14:10:08 20° 292° (WNW) 14:13:20 437.505/2401.250
PCSat 26 Jun 14:15:29 14:19:58 27° 253° (WSW) 14:24:26 145.827
AISAT 26 Jun 14:21:13 14:24:26 20° 291° (WNW) 14:27:38 437.250
AIST 2 26 Jun 14:25:22 14:26:15 11° 47° (NE) 14:27:08 435.215
Cosmos 2504 26 Jun 14:33:41 14:40:45 37° 86° (E) 14:48:18 435.465 / 435.565
TISAT 1 26 Jun 14:33:58 14:38:05 52° 100° (E) 14:42:11 437.305
UKube-1 26 Jun 14:34:36 14:38:01 23° 290° (WNW) 14:41:27 .
SPROUT 26 Jun 14:40:43 14:44:21 28° 289° (WNW) 14:48:00 437.525
DX 1 26 Jun 14:51:07 14:53:05 13° 294° (WNW) 14:55:03 434.975-435.025
PHONESAT 2.4 26 Jun 15:10:02 15:11:57 15° 217° (SW) 15:13:50 2401.200-2431.200
Gurwin Techsat 1B 26 Jun 15:13:45 15:19:02 71° 258° (WSW) 15:24:22 435.225
Oscar 19 26 Jun 15:17:27 15:21:42 26° 264° (W) 15:25:57 437.125/150
SWISSCUBE 26 Jun 15:27:12 15:31:42 38° 99° (E) 15:36:07 437.505
O/OREOS (USA 219) 26 Jun 15:29:45 15:32:25 16° 260° (W) 15:35:06 437.305
ITAMSAT 1 26 Jun 15:33:30 15:38:37 62° 74° (ENE) 15:43:47 435.822/435.867
AO-7 26 Jun 15:43:57 15:51:39 44° 65° (ENE) 15:59:24 29.400- 29.500
JAS-2 26 Jun 15:44:05 15:44:50 10° 271° (W) 15:45:35 435.910
SO-50 26 Jun 15:45:18 15:46:12 10° 106° (ESE) 15:47:06 436.795
YUBILEINY 26 Jun 15:46:23 15:52:58 24° 289° (WNW) 15:59:37 435.215
ITUPSAT 1 26 Jun 15:51:59 15:56:46 65° 102° (ESE) 16:01:31 437.325
BEESAT 26 Jun 15:52:33 15:57:20 67° 102° (ESE) 16:02:05 436.000
AIST 2 26 Jun 16:01:02 16:05:10 71° 243° (WSW) 16:09:17 435.215
TISAT 1 26 Jun 16:12:10 16:13:13 11° 294° (WNW) 16:14:18 437.305
RS-15 26 Jun 16:21:30 16:29:04 19° 333° (NNW) 16:36:53 29.354- 29.394
JUGNU 26 Jun 16:24:24 16:27:17 14° 167° (SSE) 16:30:09 437.505
Cosmos 2504 26 Jun 16:26:38 16:33:57 39° 285° (WNW) 16:41:49 435.465 / 435.565
MOZHAYETS 4 26 Jun 16:53:02 16:57:06 29° 97° (E) 17:01:06
SWISSCUBE 26 Jun 17:05:52 17:09:08 19° 293° (WNW) 17:12:25 437.505
ITAMSAT 1 26 Jun 17:16:16 17:18:26 13° 268° (W) 17:20:37 435.822/435.867
KKS-1 26 Jun 17:19:23 17:23:48 66° 101° (E) 17:28:13 437.445
SO-50 26 Jun 17:21:10 17:26:02 73° 299° (WNW) 17:30:56 436.795
ISS 26 Jun 17:22:02 17:25:14 51° 41° (NE) 17:28:25 145.825
ITUPSAT 1 26 Jun 17:32:22 17:34:00 12° 296° (WNW) 17:35:37 437.325
BEESAT 26 Jun 17:33:09 17:34:29 11° 296° (WNW) 17:35:50 436.000
AO-7 26 Jun 17:36:54 17:44:22 37° 261° (W) 17:51:56 29.400- 29.500
HORYU 2 26 Jun 17:39:01 17:43:23 68° 75° (ENE) 17:47:48 437.375
AIST 1 26 Jun 17:45:18 17:49:09 32° 91° (E) 17:53:00
GONETS M04 26 Jun 17:54:24 17:57:27 12° 78° (ENE) 18:00:29
STARS 26 Jun 17:57:51 18:02:16 90° 105° (ESE) 18:06:40 437.465
CUTE-I 26 Jun 17:59:19 18:02:25 16° 64° (ENE) 18:05:31 437.470
JUGNU 26 Jun 18:11:24 18:15:36 20° 177° (S) 18:19:47 437.505
CUBESAT XI-V 26 Jun 18:14:34 18:18:19 24° 96° (E) 18:22:03 437.345
LilacSat-2 26 Jun 18:28:09 18:30:54 20° 71° (ENE) 18:33:41 437.200
MOZHAYETS 4 26 Jun 18:30:29 18:34:03 22° 291° (WNW) 18:37:36
NOAA 15 26 Jun 18:32:47 18:37:51 48° 72° (ENE) 18:42:55 137.62
NOAA 18 26 Jun 18:37:53 18:43:00 43° 71° (ENE) 18:48:10 137.9125
BRITE-PL 26 Jun 18:40:56 18:46:01 53° 75° (ENE) 18:50:44 437.365/2234.400
RS-15 26 Jun 18:43:55 18:49:07 13° 11° (NNE) 18:54:20 29.354- 29.394
ISS 26 Jun 19:00:19 19:01:18 11° 234° (SW) 19:02:18 145.825
Cubesat XI-IV 26 Jun 19:01:32 19:06:48 64° 74° (ENE) 19:12:07 437.490
DOVE 4 26 Jun 19:02:40 19:05:05 15° 69° (ENE) 19:07:26 437.250
Cosmos 2499 26 Jun 19:16:34 19:23:41 35° 86° (E) 19:31:13 435.465 / 435.565
SRMSAT 26 Jun 19:22:11 19:25:49 17° 170° (S) 19:29:25 437.500
AIST 1 26 Jun 19:24:03 19:26:47 16° 285° (WNW) 19:29:31
GOMX 1 26 Jun 19:26:23 19:31:09 70° 76° (ENE) 19:35:36 467.674
HO-68 26 Jun 19:29:45 19:34:30 19° 60° (ENE) 19:39:14 435.675
CUTE-I 26 Jun 19:36:42 19:41:55 57° 259° (W) 19:47:12 437.470
GONETS M04 26 Jun 19:44:06 19:52:49 83° 94° (E) 20:01:32
CUBESAT XI-V 26 Jun 19:51:46 19:55:36 26° 290° (WNW) 19:59:23 437.345
JUGNU 26 Jun 19:59:59 20:03:57 18° 187° (S) 20:07:55 437.505
LilacSat-2 26 Jun 20:02:10 20:05:04 21° 264° (W) 20:07:59 437.200
CANX-2 26 Jun 20:07:54 20:11:11 22° 70° (ENE) 20:14:30 2200.000
CUSAT 1 26 Jun 20:10:13 20:13:45 59° 265° (W) 20:16:36 437.405
DANDE 26 Jun 20:12:15 20:16:52 40° 75° (ENE) 20:20:23 436.750
CINEMA 3 26 Jun 20:13:15 20:16:36 24° 71° (ENE) 20:19:57 145.822/145.860
NOAA 15 26 Jun 20:14:24 20:17:48 17° 266° (W) 20:21:13 137.62
STRAND 1 26 Jun 20:18:40 20:23:19 34° 98° (E) 20:27:55 437.568
NOAA 18 26 Jun 20:19:51 20:23:47 20° 265° (W) 20:27:46 137.9125
COMPASS 1 26 Jun 20:19:54 20:21:40 12° 67° (ENE) 20:23:27 437.405
BRITE-PL 26 Jun 20:21:53 20:24:37 14° 266° (W) 20:27:16 437.365/2234.400
CUTE 1.7 + AOD 2 26 Jun 20:27:45 20:31:32 32° 73° (ENE) 20:35:23 437.475
SEEDS 26 Jun 20:35:55 20:39:32 28° 72° (ENE) 20:43:12 437.485
DOVE 4 26 Jun 20:38:20 20:42:29 38° 261° (W) 20:46:29 437.250
Cubesat XI-IV 26 Jun 20:44:59 20:47:15 13° 268° (W) 20:49:32 437.490
RS-15 26 Jun 20:56:20 21:07:15 35° 45° (NE) 21:18:02 29.354- 29.394
ZACube-1 26 Jun 21:03:23 21:04:19 11° 66° (ENE) 21:05:16 437.345
Cosmos 2499 26 Jun 21:08:53 21:16:31 43° 284° (WNW) 21:24:41 435.465 / 435.565
SRMSAT 26 Jun 21:10:06 21:14:18 20° 181° (S) 21:18:29 437.500
HO-68 26 Jun 21:14:20 21:21:27 72° 256° (WSW) 21:28:37 435.675
Oscar 11 26 Jun 21:15:23 21:18:17 18° 69° (ENE) 21:21:11 145.826/435.025
AO-85 26 Jun 21:15:30 21:16:49 11° 105° (ESE) 21:18:07 145.980
UWE-3 26 Jun 21:16:49 21:20:13 25° 71° (ENE) 21:23:40 435.000/436.395/437.385
FUNcube-1 26 Jun 21:20:19 21:22:56 16° 68° (ENE) 21:25:36 145.935
AAUSAT CUBESAT 2 26 Jun 21:20:43 21:24:47 53° 75° (ENE) 21:28:53 437.432
AUBIESAT-1 26 Jun 21:21:26 21:24:27 33° 70° (ENE) 21:27:28 437.475
CANX-2 26 Jun 21:43:21 21:46:53 25° 264° (W) 21:50:27 2200.000
GONETS M04 26 Jun 21:45:18 21:50:35 17° 292° (WNW) 21:55:54
CINEMA 3 26 Jun 21:50:33 21:53:41 21° 265° (W) 21:56:49 145.822/145.860
JUGNU 26 Jun 21:50:48 21:52:14 11° 196° (SSW) 21:53:40 437.505
DELFI C3 26 Jun 21:51:25 21:54:15 19° 70° (ENE) 21:57:04 145.870
COMPASS 1 26 Jun 21:52:45 21:56:47 45° 261° (W) 22:00:51 437.405
DANDE 26 Jun 21:58:06 21:58:42 10° 281° (W) 21:59:16 436.750
STRAND 1 26 Jun 21:58:11 22:02:16 24° 292° (WNW) 22:06:19 437.568
M-CUBED/EXP-1 PRIME 26 Jun 21:58:48 22:02:00 44° 255° (WSW) 22:05:08 437.505
CUBEBUG 2 26 Jun 22:00:34 22:04:38 59° 260° (W) 22:08:48 437.445
CUTE 1.7 + AOD 2 26 Jun 22:04:40 22:07:25 17° 266° (W) 22:10:12 437.475
SEEDS 26 Jun 22:12:11 22:15:13 19° 266° (W) 22:18:16 437.485
PRISM 26 Jun 22:14:11 22:18:16 88° 288° (WNW) 22:22:20 437.425
HUMSAT D 26 Jun 22:31:58 22:35:24 26° 71° (ENE) 22:38:52 437.325/437.525
ZACube-1 26 Jun 22:36:01 22:40:05 52° 261° (W) 22:44:13 437.345
Oscar 11 26 Jun 22:50:14 22:54:07 33° 262° (W) 22:58:03 145.826/435.025
AO-85 26 Jun 22:51:12 22:56:40 83° 298° (WNW) 23:02:01 145.980
UWE-3 26 Jun 22:53:30 22:56:37 21° 265° (W) 22:59:48 435.000/436.395/437.385
FUNcube-1 26 Jun 22:55:09 22:58:53 32° 263° (W) 23:02:42 145.935
SRMSAT 26 Jun 22:59:22 23:02:46 16° 191° (S) 23:06:10 437.500
ANTELSAT 26 Jun 23:05:42 23:09:10 20° 95° (E) 23:12:39 437.575/2403.000
RS-15 26 Jun 23:08:29 23:20:45 72° 247° (WSW) 23:32:47 29.354- 29.394
DELFI C3 26 Jun 23:25:29 23:28:53 26° 263° (W) 23:32:19 145.870
ESTCUBE 1 26 Jun 23:26:02 23:29:18 20° 69° (ENE) 23:32:34 437.505/2401.250
AISAT 26 Jun 23:38:58 23:41:51 17° 68° (ENE) 23:44:44 437.250
UKube-1 26 Jun 23:50:57 23:53:02 13° 66° (ENE) 23:55:08 .
TIGRISAT 26 Jun 23:56:57 00:01:37 76° 102° (ESE) 00:06:18 435.000
UNISAT 6 27 Jun 00:01:23 00:06:04 90° 108° (ESE) 00:10:46 437.425
YUBILEINY 27 Jun 00:02:46 00:09:50 26° 72° (ENE) 00:16:50 435.215
DX 1 27 Jun 00:05:23 00:08:57 25° 70° (ENE) 00:12:31 434.975-435.025
HUMSAT D 27 Jun 00:07:54 00:10:57 20° 265° (W) 00:14:04 437.325/437.525
CUBEBUG 1 27 Jun 00:30:11 00:34:32 71° 76° (ENE) 00:38:53 437.445
VELOX 1 27 Jun 00:32:57 00:37:20 71° 76° (ENE) 00:41:44 145.980
Cosmos 2504 27 Jun 00:35:24 00:36:28 10° 62° (ENE) 00:37:33 435.465 / 435.565
AO-85 27 Jun 00:35:40 00:37:51 12° 315° (NW) 00:40:01 145.980
50 SAT 27 Jun 00:36:04 00:39:46 89° 77° (ENE) 00:43:30 437.505
NANOSAT C BR1 27 Jun 00:40:11 00:44:02 33° 98° (E) 00:47:54 145.865
